Terug naar catalogus

ONEWEB-0405

ActiefCommunicatiePO
NORAD 50485·PAYLOAD·🇬🇧 United Kingdom

Gelanceerd Dec 27, 2021 vanaf Baikonur Cosmodrome

Loading…

Volgende Passages (komende 24 uur)

TLE

VersSource: CelesTrak SupGP

Epoch: Sep 15, 2026, 03:02 UTC

1 50485C 21132S   26258.12689074  .00000530  00000+0  13463-2 0  2585
2 50485  87.9170 317.5773 0001500  98.1690 288.1049 13.18686527    18

Volg ONEWEB-0405 in realtime met AllMySat

Download on the App Store